Showing default

YAOGAN-43 02E, 60949

Orbit data source: Space-Track

YAOGAN-43 02E, 60949 is a payload satellite owned by PLA GAD (CN) in LEO that was launched on Tue, 03 Sep 2024 UTC via a CHANG ZHENG 4B launch vehicle from the Xichang Space Center, China (XSC). Payloads include a variety of satellites, spacecraft, and rockets equipped with specific instruments for various scientific and technological missions. These include communications satellites like Starlink; space stations such as the ISS; scientific satellites like the Hubble; Earth observation satellites from companies like Planet Labs, Umbra, and HawkEye 360; GPS; miniature CubeSats for education and research; and military/defense satellites.

Loading next visibility...
YAOGAN-43 02E details
Identifier
60949, 2024-156E
Orbit
LEO
Last TLE update6 hours ago
Origin
Flag of CNPLA GAD (CN / PRC)
ManufacturerSAST
MissionOperational spacecraft
Bus & MotorUnknown
Mass~300 kg wet, ~300 kg dry
Launch date (UTC)
2024-09-03 (4 months ago)
Launch vehicle
CHANG ZHENG 4B
Launch site
Xichang Space Center, China (XSC)
Object type
Payload
Rocket body
Debris
Shape & HBRUnknown
Radar Cross SectionLarge (>1 m²)

Expand to show TLE details & history

TLE from 6 hours ago
0 YAOGAN-43 02E
1 60949U 24156E   25014.94061551  .00016684  00000-0  70054-3 0  9993
2 60949  34.9943 217.5241 0012050 282.0771  77.8593 15.22546337 20389
Epoch: 2025-01-14T22:34Z
Definitive object data (Epoch: 2025-01-14T22:34:29.18Z)
Latitude-0.00001°
Longitude124.26241°
Altitude495.337 km
Speed7.62 km/s
True Right ascension14h 30m 05s
True Declination0° 00' 00"
Sunlit
Object was in daylight at TLE epoch
Visualization TLE readout
Latitude22.21501°
Longitude158.02891°
Altitude500.508 km
Speed7.616 km/s
Apparent Right ascension17h 09m 53s
Apparent Declination-7° 33' 50"
Sunlit
Object is in daylight
Visualization observer readout
Local Sidereal Time05:42:04
Azimuth14.706° NNE
Elevation-56.855°
Doppler factor1
Orbital elements
Apogee altitude509.703 km
Perigee altitude493.124 km
Semi-major axis6,879.551 km
Eccentricity0.001205
Inclination34.9943°
RAAN217.5241°
Arg. of periapsis282.0771°
True anomaly77.99434°
Mean anomaly77.8593°
Eccentric anomaly77.92681°
Mean motion3.80367 °/min
BSTAR0.00070054
Orbital period94.65 mins
Loading maneuver chart data...
Loading historical data...
Loading historical data...
Loading historical data...
Loading historical data...
Loading historical data...
Loading historical data...
Loading historical data...

YAOGAN-43 02E Visibility forecast

Observer location: undefined°, undefined

Span
Click to sort rows by Start time (UTC) header in descending order
Start Az.
Max El. time (UTC)
Max El. Az.
Max El.
End time (UTC)
End Az.
6 mins2025-01-15 17:42:55.681Z221.543° SW2025-01-15 17:45:55.681Z167.856° S24.238°2025-01-15 17:48:55.681Z109.896° ESE
6 mins2025-01-15 19:22:55.681Z242.267° WSW2025-01-15 19:25:55.681Z162.942° S31.654°2025-01-15 19:28:55.681Z111.508° ESE
5 mins2025-01-15 21:02:55.681Z240.926° WSW2025-01-15 21:04:55.681Z197.119° SSW24.659°2025-01-15 21:07:55.681Z139.372° SSE
|